Content
SEND FEEDBACK

Daily
Averages
Monthly
Summary
United States of America

BRIDGTON, MAINE


Home > North America > United States > Maine
Elevation: 510 feet     Latitude: 44 04N     Longitude: 070 45W

WEATHER
 
SELECT A DAY
Number of Records: 222,906;   Date Range: 7/1/96 - 12/24/14
 
SHARE

PRINT THIS DATA

[ ← Previous Day ]
WEATHER ALMANAC - JANUARY 31, 2013
[ Next Day → ]
[ °C ]   °F
Weather ElementAverageHighLow
Temperature45.3 °F57.2 °F (7:20 am)28.9 °F (10:54 pm)
Dewpoint38.9 °F55.4 °F (7:20 am)7 °F (10:54 pm)
Humidity81.4 %100 % (12:10 am)40 % (9:54 pm)
Barometer29.14 in29.42 in (10:54 pm)28.80 in (9:40 am)
Wind Speed9.3 mph19.6 mph (11:54 am)
Wind Gust39.1 mph (9:51 am)
Weather ElementAverage
Visibility6 mi
Wind DirectionSSE (169.2 °)

Weather ElementTotal
Precipitation0.99 in
Heating Degree Days22 (Base 65)
Averaged from 37 records on January 31, 2013
WEATHER CONDITIONS BREAKOUT
WIND DIRECTION BREAKOUT
WEATHER BY HOUR - JANUARY 31, 2013
[ °C ]   °F
Local TimeTemperatureDewpointHumidityBarometerVisibilityWind DirectionWind SpeedGust SpeedPrecipitationEventsConditions
12:10 AM37.4 °F37.4 °F100 %29.38 in0.8 miESE (120°)4.6 mph0.00 inRainLight Rain
12:41 AM39.2 °F39.2 °F100 %29.36 in0.2 miCalm0.00 inFog-RainLight Rain
12:54 AM39.9 °F39.9 °F100 %29.36 inCalm0.01 inRainLight Rain
1:01 AM39.2 °F39.2 °F100 %29.34 in0.2 miCalm0.01 inFog-RainRain
1:12 AM42.8 °F41.0 °F93 %29.33 in0.5 miCalm0.02 inFog-RainLight Rain
1:25 AM39.2 °F39.2 °F100 %29.31 in0.5 miNW (310°)3.5 mph0.03 inFog-RainLight Rain
1:36 AM42.8 °F42.8 °F100 %29.30 in0.2 miCalm0.03 inFogFog
1:43 AM42.8 °F41.0 °F93 %29.29 in0.2 miCalm0.03 inFog-RainLight Rain
1:54 AM39.9 °F39.9 °F100 %29.29 in0.5 miCalm0.04 inFog-RainLight Rain
2:10 AM48.2 °F48.2 °F100 %29.25 in1.0 miSouth (180°)5.8 mph0.00 inRainLight Rain
2:19 AM51.8 °F50.0 °F94 %29.24 in2.0 miSouth (180°)6.9 mph0.01 inRainLight Rain
2:32 AM51.8 °F51.8 °F100 %29.22 in3.0 miSouth (170°)6.9 mph0.02 inRainLight Rain
2:43 AM51.8 °F51.8 °F100 %29.21 in2.5 miSouth (170°)8.1 mph0.04 inRainLight Rain
2:54 AM52.0 °F52.0 °F100 %29.21 inSouth (180°)9.2 mph0.07 inRainLight Rain
3:17 AM53.6 °F53.6 °F100 %29.16 in6.0 miSouth (180°)8.1 mph16.1 mph0.05 inRainLight Rain
3:54 AM54.0 °F54.0 °F100 %29.12 in10.0 miSouth (170°)12.7 mph24.2 mph0.09 inRainLight Rain
4:54 AM55.9 °F54.0 °F93 %29.05 in10.0 miSouth (170°)8.1 mph0.06 inRainLight Rain
5:54 AM57.0 °F55.0 °F93 %28.96 in8.0 miSSE (160°)11.5 mph19.6 mph0.05 inRainLight Rain
7:20 AM57.2 °F55.4 °F94 %28.92 in9.0 miSSW (200°)16.1 mph25.3 mph0.09 inRainLight Rain
7:54 AM55.9 °F53.1 °F90 %28.90 in10.0 miSSW (210°)8.1 mph16.1 mph0.12 inRainLight Rain
8:54 AM54.0 °F52.0 °F93 %28.86 in10.0 miSouth (190°)5.8 mph0.01 inMostly Cloudy
9:40 AM55.4 °F51.8 °F88 %28.80 in10.0 miSouth (180°)9.2 mph20.7 mphOvercast
9:51 AM55.4 °F51.8 °F88 %28.81 in1.8 miSW (220°)16.1 mph39.1 mph0.08 inRainLight Rain
9:54 AM53.1 °F50.0 °F89 %28.84 in1.5 miWSW (250°)18.4 mph39.1 mph0.09 inRainRain
10:00 AM50.0 °F46.4 °F87 %28.85 in3.0 miWest (270°)16.1 mph39.1 mph0.00 inRainLight Rain
10:04 AM48.2 °F44.6 °F87 %28.85 in8.0 miWest (260°)18.4 mph32.2 mph0.00 inRainLight Rain
10:54 AM44.1 °F39.9 °F85 %28.92 in10.0 miVariable6.9 mph16.1 mph0.04 inRainLight Rain
11:54 AM45.0 °F30.9 °F58 %28.95 in10.0 miWSW (250°)19.6 mph34.5 mph0.00 inScattered Clouds
12:54 PM44.1 °F26.1 °F49 %29.03 in10.0 miWest (270°)17.3 mph36.8 mphMostly Cloudy
1:54 PM43.0 °F23.0 °F45 %29.06 in10.0 miWSW (250°)16.1 mph25.3 mphMostly Cloudy
2:54 PM42.1 °F21.0 °F43 %29.11 in10.0 miWSW (240°)12.7 mph26.5 mphOvercast
4:54 PM35.1 °F14.0 °F42 %29.24 in10.0 miWSW (240°)12.7 mph23.0 mph0.00 inOvercast
5:54 PM34.0 °F14.0 °F44 %29.27 in10.0 miSW (230°)15.0 mph24.2 mph0.00 inOvercast
7:54 PM32.0 °F10.9 °F42 %29.33 in10.0 miWSW (250°)12.7 mph20.7 mphOvercast
8:54 PM30.9 °F10.9 °F43 %29.36 in10.0 miWSW (240°)17.3 mph29.9 mphOvercast
9:54 PM30.0 °F8.1 °F40 %29.39 in10.0 miWSW (250°)11.5 mph29.9 mphPartly Cloudy
10:54 PM28.9 °F7.0 °F40 %29.42 in10.0 miWest (270°)10.4 mph29.9 mphOvercast
Hourly data recorded from KIZG, located miles away from Bridgton, Maine







STORIES FROM OUR PARTNERS